Regional Weather Roundup
Issued by NWS

Home | Current Version | Previous Version | Text Only | Print | Product List | Glossary On
Versions: 1 2 3 4 5 6 7 8 9 10 11 12 13 14 15 16 17 18 19 20 21 22 23 24 25 26 27 28 29 30 31 32 33 34 35 36 37 38 39 40 41 42 43 44 45 46 47 48 49 50
000
ASUS46 KSEW 171410
RWRWA

WASHINGTON REGIONAL WEATHER ROUNDUP
NATIONAL WEATHER SERVICE SEATTLE WA
600 AM PST SUN DEC 17 2017

NOTE:"FAIR" INDICATES FEW OR NO CLOUDS BELOW 12,000 FEET WITH NO
SIGNIFICANT WEATHER AND/OR OBSTRUCTIONS TO VISIBILITY.

WAZ507-509-555>559-171500-
SEATTLE, TACOMA, EVERETT, AND VICINITY

CITY           SKY/WX    TMP DP  RH WIND       PRES   REMARKS
EVERETT        CLOUDY    43  41  93 SE20G26   30.12F FOG
BOEING FIELD   CLOUDY    43  43 100 SE9       30.15F FOG
RENTON         CLOUDY    44  43  96 E3        30.16S
SEATAC AIRPORT LGT RAIN  43  42  97 S5        30.15S
JBLM-MCCHORD   CLOUDY    42  42 100 CALM      30.15F
PUYALLUP       CLOUDY    46  41  81 VRB5      30.15S
BREMERTON      LGT RAIN  42  41  96 S13       30.13F FOG
JBLM-FT LEWIS  CLOUDY    44  44 100 SE10      30.14F
TACOMA NARROWS CLOUDY    43  42  97 S8        30.15F
$$

WAZ001-503-506-510-514-515-171500-
NORTH INTERIOR

CITY           SKY/WX    TMP DP  RH WIND       PRES   REMARKS
BELLINGHAM     LGT RAIN  45  41  86 SE8       30.11F
FRIDAY HARBOR  CLOUDY    43  42  97 E12       30.10F
EASTSOUND      CLOUDY    45  43  93 S12G18    30.10R
PORT ANGELES   CLOUDY    42  41  96 S3        30.08F
EDIZ HOOK      CLOUDY    43  41  94 SW3       30.09F
PORT TOWNSEND  CLOUDY    45  43  93 SE9       30.10F
NAS WHIDBEY    LGT RAIN  46  41  82 SE14G21   30.14F
ARLINGTON      LGT RAIN  43  41  93 SE15      30.14F
BURLINGTON     CLOUDY    45  41  87 SE7G15    30.12F
$$

WAZ020-022-039-040-504-511-512-171500-
SOUTHWEST INTERIOR

CITY           SKY/WX    TMP DP  RH WIND       PRES   REMARKS
SHELTON        LGT RAIN  43  42  97 W3        30.12F FOG
OLYMPIA        CLOUDY    43  42  97 S12       30.15F FOG
CHEHALIS       CLOUDY    45  43  93 S12G20    30.18F
KELSO          CLOUDY    43  41  93 S7        30.23F
VANCOUVER      CLOUDY    42  41  96 SE7       30.25F FOG
SCAPPOOSE, OR  CLOUDY    40  40 100 CALM      30.25S FOG
PORTLAND, OR   DRIZZLE   42  40  92 E7        30.26F
$$

WAZ021-516-517-171500-
WASHINGTON COAST

CITY           SKY/WX    TMP DP  RH WIND       PRES   REMARKS
FORKS          LGT RAIN  46  45  96 VRB3      30.08F FOG
HOQUIAM        LGT RAIN  47  47 100 S8        30.14F FOG
ASTORIA, OR    CLOUDY    47  45  93 S8        30.18F FOG
$$

WAZ019-023-024-040-567>569-171500-
CASCADE MOUNTAINS AND COLUMBIA GORGE

CITY           SKY/WX    TMP DP  RH WIND       PRES   REMARKS
STAMPEDE PASS  MIX PCPN  34  32  92 VRB3      30.05S FOG
TROUTDALE, OR  CLOUDY    42  39  89 CALM      30.27R
HOOD RIVER, OR NOT AVBL
THE DALLES, OR PTCLDY    34  32  92 CALM      30.23F
$$

WAZ026-027-041>044-520-521-171500-
EAST SLOPES

CITY           SKY/WX    TMP DP  RH WIND       PRES   REMARKS
OMAK           CLOUDY    29  27  92 SE6       30.17F
WENATCHEE      FOG       28  28 100 E5        30.17R VSB 1
ELLENSBURG     CLOUDY    34  29  82 E5        30.12S
YAKIMA         CLOUDY    31  29  92 SW3       30.17F FOG
SUNNYSIDE ARPT FOG       30  30  99 W3        30.21S VSB 1/2
YAKIMA TC      FOG       29  28  95 CALM      30.14F VSB 3/8
$$

WAZ028-034-035-171500-
COLUMBIA BASIN

CITY           SKY/WX    TMP DP  RH WIND       PRES   REMARKS
EPHRATA        CLOUDY    28  23  81 N6        30.17F
MOSES LAKE     CLOUDY    29  28  96 CALM      30.18F
PASCO          CLOUDY    32  31  96 N3        30.22R FOG
RICHLAND ARPT  CLOUDY    33  33 100 NE3       30.23S FOG
HERMISTON, OR  CLOUDY    31  31 100 CALM      30.20S FOG
$$

WAZ036>038-171500-
NORTHEAST WASHINGTON

CITY           SKY/WX    TMP DP  RH WIND       PRES   REMARKS
SPOKANE GEIGER LGT SNOW  29  28  96 S12       30.13S FOG     WCI  19
SPOKANE FELTS  LGT SNOW  30  28  92 E5        30.16F FOG
FAIRCHILD AFB  FLURRIES  28  28 100 S13       30.11F WCI  17
COEURDALENE,ID LGT SNOW  28  27  96 S8        30.16F FOG
DEER PARK      LGT SNOW  27  25  92 CALM      30.15F VSB 1
$$

WAZ029>033-171500-
SOUTHEAST WASHINGTON

CITY           SKY/WX    TMP DP  RH WIND       PRES   REMARKS
PULLMAN        CLOUDY    26  22  84 E13       30.19S WCI  15
LEWISTON, ID   CLOUDY    28  25  88 SE7       30.22S
WALLA WALLA    CLOUDY    38  30  73 S8        30.20R
PENDLETON, OR  CLOUDY    35  28  75 S7        30.18S
$$



USA.gov is the U.S. government's official web portal to all federal, state and local government web resources and services.